Volver al catálogo

SL-8 R/B

ActivoPO
NORAD 12804·ROCKET BODY·🇷🇺 Russia

Lanzado Sep 4, 1981 desde Plesetsk Cosmodrome

Loading…

Próximos Pases (próximas 24 horas)

TLE

ActualizadoSource: Space-Track

Época: Sep 14, 2026, 13:42 UTC

1 12804U 81087B   26257.57125044  .00000129  00000-0  91964-4 0  9994
2 12804  82.9279 296.3656 0041696 213.3750 310.3829 13.89800867281971

Sigue SL-8 R/B en tiempo real con AllMySat

Download on the App Store